Regional Weather Roundup
Issued by NWS

Home | Current Version | Previous Version | Graphics & Text | Print | Product List | Glossary On
Versions: 1 2 3 4 5 6 7 8 9 10 11 12 13 14 15 16 17 18 19 20 21 22 23 24 25 26 27 28 29 30 31 32 33 34 35 36 37 38 39 40 41 42 43 44 45 46 47 48 49 50
000
ASUS43 KMPX 192310
RWRMN
WEATHER ROUNDUP FOR MINNESOTA
NATIONAL WEATHER SERVICE TWIN CITIES/CHANHASSEN MN
600 PM CDT TUE AUG 19 2014


NOTE: "FAIR" INDICATES FEW OR NO CLOUDS BELOW 12,000 FEET WITH NO
SIGNIFICANT WEATHER AND/OR OBSTRUCTIONS TO VISIBILITY. N/A MEANS
CURRENT SKY AND/OR WEATHER CONDITIONS ARE NOT AVAILABLE.

MNZ060>063-068>070-200000-
   Twin Cities Metro

CITY           SKY/WX    TMP DP  RH WIND       PRES   REMARKS
TWIN CITIES    MOSUNNY   79  62  56 NW7       29.74S
ST PAUL        PTSUNNY   78  63  59 SE3       29.74R
CRYSTAL        PTSUNNY   82  61  48 W12       29.72S
BLAINE         LGT RAIN  79  66  65 NW6       29.74R
LAKEVILLE      MOSUNNY   75  64  69 W3        29.75S
EDEN PRAIRIE   PTSUNNY   80  62  54 W7        29.73S
SOUTH ST PAUL  LGT RAIN  75  63  65 NE5       29.74S
LAKE ELMO      CLOUDY    75  63  64 CALM      29.75S
$$
MNZ001>005-007-008-013>017-022>024-027-028-200000-
   Northwest Minnesota

CITY           SKY/WX    TMP DP  RH WIND       PRES   REMARKS
BEMIDJI        SUNNY     74  60  60 N6        29.77R
HALLOCK        SUNNY     81  61  50 E5        29.73S
ROSEAU         SUNNY     75  66  73 E9        29.76R
WARROAD        SUNNY     72  64  78 NE7       29.77S
THIEF RVR FALL MOSUNNY   79  61  53 N7        29.76R
CROOKSTON      SUNNY     79  63  57 NE5       29.74S
FOSSTON        SUNNY     79  66  65 CALM      29.77S
DETROIT LAKES  MOSUNNY   77  61  57 N3        29.78S
MOORHEAD       SUNNY     81  66  61 NE3       29.75S
PARK RAPIDS    SUNNY     76  59  55 N8        29.77R
MAHNOMEN       FAIR      76  62  60 N5        29.76R
$$
MNZ006-009>011-018-025>026-200000-
   North Central Minnesota

CITY           SKY/WX    TMP DP  RH WIND       PRES   REMARKS
BAUDETTE       MOSUNNY   72  62  71 E7        29.77S
FLAG ISLAND    SUNNY     72  61  68 CALM      29.76S
INTL FALLS     PTSUNNY   71  60  68 E8        29.78R
WASKISH        PTSUNNY   73  64  73 N6        29.77S
BIG FORK       PTSUNNY   72  63  73 NE3       29.78S
LONGVILLE      SUNNY     73  64  73 NW5       29.76S
GRAND RAPIDS   MOSUNNY   73  61  64 N5        29.77R
CRANE LAKE     CLOUDY    66  63  88 CALM      29.80R
ORR            CLOUDY    68  57  68 CALM      29.76S
COOK           CLOUDY    68  61  77 NE3       29.79R
WALKER         FAIR      73  63  71 CALM      29.77R
$$
MNZ012-019>021-037-200000-
   Northeast Minnesota

CITY           SKY/WX    TMP DP  RH WIND       PRES   REMARKS
DULUTH         PTSUNNY   70  60  70 N9        29.75R
ELY            CLOUDY    64  61  88 N3        29.78S
HIBBING        CLOUDY    71  60  68 NE5       29.77R
EVELETH        CLOUDY    70  61  73 NE8       29.79R
DULUTH HARBOR  PTSUNNY   64  63  94 E8        29.76R
TWO HARBORS    CLOUDY    66  59  77 N5        29.74S
SILVER BAY     PTSUNNY  N/A N/A N/A CALM        N/A
GRAND MARAIS     N/A     60  58  92 E3        29.76R
G MARAIS ARPRT CLOUDY    61  55  82 N8        29.79R
$$
MNZ029>031-032-039>041-046>048-054>057-064-200000-
   West Central Minnesota

CITY           SKY/WX    TMP DP  RH WIND       PRES   REMARKS
FERGUS FALLS   MOSUNNY   81  59  47 N5        29.75R
WHEATON        SUNNY     79  64  61 CALM      29.77R
MORRIS         SUNNY     82  63  51 N5        29.76R
ALEXANDRIA     SUNNY     78  61  55 NW7       29.78S
ELBOW LAKE     FAIR      78  63  60 N6        29.76S
WADENA         SUNNY     77  61  57 NW6       29.76S
GLENWOOD       SUNNY     79  61  53 NW9       29.78S
APPLETON       SUNNY     82  61  47 CALM      29.76S
BENSON         SUNNY     77  64  65 N3        29.76S
ORTONVILLE     SUNNY     82  63  51 N5        29.77R
MADISON        SUNNY     84  64  51 N6        29.76F
WILLMAR        FAIR      81  61  50 W7        29.77S
$$
MNZ033>034-036-042>043-049>051-058-059-200000-
   Central Minnesota

CITY           SKY/WX    TMP DP  RH WIND       PRES   REMARKS
ST CLOUD       MOSUNNY   83  62  49 NW7       29.73F
SAUK CENTRE    FAIR      79  59  50 NW10      29.76S
PAYNESVILLE    SUNNY     77  60  55 W7        29.76S
AITKIN         MIX PCPN  72  66  83 NE3       29.74R
PINE RIVER     MOSUNNY   75  63  64 N7        29.80R
BRAINERD       MOSUNNY   73  63  70 N5        29.76R
STAPLES        PTSUNNY   79  59  50 N7        29.76R
LONG PRAIRIE   FAIR      79  61  53 NW8       29.77S
LITTLE FALLS   MOSUNNY   77  59  53 CALM      29.75S
LITCHFIELD     SUNNY     81  63  54 NW6       29.76S
BUFFALO        PTSUNNY   77  61  58 NW5       29.75S
MAPLE LAKE     PTSUNNY   79  67  67 CALM      29.75S
$$
MNZ037-044-045-052-053-200000-
   East Central Minnesota

CITY           SKY/WX    TMP DP  RH WIND       PRES   REMARKS
PRINCETON      SUNNY     77  66  69 CALM      29.75S
MORA           MOSUNNY   73  59  60 N3        29.76R
CAMBRIDGE      PTSUNNY   79  63  57 NW8       29.73S
RUSH CITY      PTSUNNY   76  64  65 NW7       29.74S
MOOSE LAKE     MOSUNNY   73  63  68 NE7       29.73R
HINCKLEY       CLOUDY    73  64  73 N5        29.75R
CLOQUET        PTSUNNY   70  61  73 N6        29.76R
MCGREGOR       SUNNY     77  61  57 N9        29.75S
$$
MNZ071>073-080-081-089-090-097-098-200000-
   Southwest Minnesota

CITY           SKY/WX    TMP DP  RH WIND       PRES   REMARKS
MONTEVIDEO     SUNNY     82  66  57 N5        29.77S
GRANITE FALLS  SUNNY     81  65  59 NW6       29.78S
CANBY          MOSUNNY   82  65  56 NE6       29.78S
MARSHALL       SUNNY     81  64  57 N7        29.77S
REDWOOD FALLS  MOSUNNY   83  62  49 NW5       29.76S
OLIVIA         MOSUNNY   81  63  54 W8        29.76S
PIPESTONE      SUNNY     81  61  50 W5        29.81S
WINDOM         MOSUNNY   81  63  54 NW5       29.79S
WORTHINGTON    SUNNY     84  23  10 W9        29.81F
JACKSON        SUNNY     81  61  50 W8        29.80S
TRACY          MOSUNNY   82  65  57 CALM      29.79R
SLAYTON        SUNNY     81  60  49 CALM      29.81S
$$
MNZ065>067-074>077-082>085-091>093-200000-
   South Central Minnesota

CITY           SKY/WX    TMP DP  RH WIND       PRES   REMARKS
MANKATO        SUNNY     81  63  54 NW10      29.76S
NEW ULM        SUNNY     81  64  57 NW9       29.76S
ST JAMES       SUNNY     84  61  45 NW7       29.78R
FAIRMONT       PTSUNNY   82  52  34 W7        29.78S
GLENCOE        MOSUNNY   80  62  55 CALM      29.75R
FARIBAULT      PTSUNNY   81  61  50 N6        29.77R
OWATONNA       LGT RAIN  75  64  69 NE5       29.77R
WASECA         MOSUNNY   79  61  53 W8        29.78S
ALBERT LEA     PTSUNNY   75  64  69 N6        29.78R
$$
MNZ078>079-086>088-094>096-200000-
   Southeast Minnesota

CITY           SKY/WX    TMP DP  RH WIND       PRES   REMARKS
ROCHESTER      PTSUNNY   76  62  62 NW8       29.78S
RED WING       MOSUNNY   77  61  57 W3        29.73S
STANTON        MOSUNNY   78  63  59 SW6       29.74S
DODGE CENTER   MOSUNNY   73  64  73 N6        29.78S
WINONA         SUNNY     77  63  61 NW6       29.74S
AUSTIN         SUNNY     79  63  57 W6        29.77S
PRESTON        SUNNY     76  66  71 NW9G17    29.78S
$$
ABBREVIATIONS USED IN REMARKS
   TC - TEMPERATURES IN CELSIUS
  WCI - WIND CHILL INDEX
   HX - HEAT INDEX
  VSB - VISIBILITY
$$


USA.gov is the U.S. government's official web portal to all federal, state and local government web resources and services.